Regional Weather Roundup
Issued by NWS

Home | Current Version | Previous Version | Text Only | Print | Product List | Glossary On
Versions: 1 2 3 4 5 6 7 8 9 10 11 12 13 14 15 16 17 18 19 20 21 22 23 24 25 26 27 28 29 30 31 32 33 34 35 36 37 38 39 40 41 42 43 44 45 46 47 48 49 50
000
ASUS43 KTOP 230908
RWRKS

WEATHER ROUNDUP FOR KANSAS
NATIONAL WEATHER SERVICE GOODLAND KS
400 AM CDT WED APR 23 2014

NOTE:  "FAIR" INDICATES FEW OR NO CLOUDS BELOW 12,000 FEET WITH NO
SIGNIFICANT WEATHER AND/OR OBSTRUCTIONS TO VISIBILITY.

KSZ001>006-013>018-027>032-041>047-231000-
NORTHWEST KANSAS

CITY           SKY/WX    TMP DP  RH WIND       PRES   REMARKS
GOODLAND       MOCLDY    57  45  64 S24G33    29.65F
HAYS           MOCLDY   N/A N/A N/A SE17      29.77F
HILL CITY      MOCLDY    58  36  43 S13G26    29.72F
RUSSELL        MOCLDY    58  34  40 SE21G29   29.78F
$$

KSZ061>065-074>080-084>089-231000-
SOUTHWEST KANSAS

CITY           SKY/WX    TMP DP  RH WIND       PRES   REMARKS
DODGE CITY     PTCLDY    57  41  55 S18       29.78F
ELKHART          N/A     61  36  39 S16         N/A
GARDEN CITY    PTCLDY    56  46  69 S14       29.76S
GREAT BEND     PTCLDY    59  32  36 S20       29.80F
LIBERAL        MOCLDY    63  45  51 E20       29.80F
PRATT          PTCLDY    57  34  41 S16       29.85S
$$

KSZ066>073-081>083-090>101-231000-
SOUTHEAST KANSAS

CITY           SKY/WX    TMP DP  RH WIND       PRES   REMARKS
CHANUTE        MOCLDY    54  38  54 E8        29.95S
COFFEYVILLE    PTCLDY    48  40  73 CALM      29.94S
HUTCHINSON     MOCLDY    58  35  42 SE13      29.87F
MEDICINE LODGE   N/A     59  36  42 SE9       29.84F
NEWTON         CLOUDY    54  30  40 SE9       29.93S
PARSONS        CLEAR     55  36  48 E3        29.95F
WICHITA INTL   MOCLDY    57  35  43 SE9       29.89S
WICHITA JABRA  CLEAR     56  36  47 SE9       29.89S
WICHITA MCCONL PTCLDY    56  35  45 E10       29.90S
$$

KSZ007>012-019>026-033>040-048>060-102>105-231000-
NORTHEAST KANSAS

CITY           SKY/WX    TMP DP  RH WIND       PRES   REMARKS
CONCORDIA      CLOUDY    59  35  40 S28G37    29.84F
EMPORIA        LGT RAIN  54  37  52 SE12G20   29.93F
LAWRENCE       CLOUDY    51  41  68 CALM      29.99R
MANHATTAN      CLOUDY    58  37  45 S8G18     29.90S
OLATHE IND     CLOUDY    55  35  47 SE6       29.99R
OLATHE EXE     MOCLDY    54  34  46 E7        29.99R
SALINA         LGT RAIN  59  36  42 SE20G30   29.87F
TOPEKA BILLARD CLOUDY    55  40  56 E7        29.96F
TOPEKA FORBES  CLOUDY    53  38  56 SE5       29.96F
$$



USA.gov is the U.S. government's official web portal to all federal, state and local government web resources and services.